Bar Harbor, ME

11:56 PM EDT on July 21, 2017 (GMT -0400)
Hancock County-Bar Harbor

Weather History for KBHB - June, 2013

Change the Weather History Date:

Tuesday, June 11, 2013

  Actual Average Record
Temperature  
Mean Temperature 53 °F -  
Max Temperature 55 °F 71 °F 86 °F (1976)
Min Temperature 51 °F 48 °F 37 °F (1968)
Degree Days  
Heating Degree Days 12    
Growing Degree Days 3 (Base 50)    
Moisture  
Dew Point 53 °F    
Average Humidity 97    
Maximum Humidity 100    
Minimum Humidity 94    
Precipitation  
Precipitation 0.01 in - - ()
Sea Level Pressure  
Sea Level Pressure 29.82 in    
Wind  
Wind Speed 7 mph (East)    
Max Wind Speed 17 mph    
Max Gust Speed 24 mph    
Visibility 6 miles    
Events      
Averages and records for this station are not official NWS values.
T = Trace of Precipitation, MM = Missing Value Source: NWS Daily Summary

Daily Weather History Graph

Daily Weather History Graph

Search for Another Location

Airport or City:

Trip Planner

Search our weather history database for the weather conditions in past years. The results will help you decide how hot, cold, wet, or windy it might be!

Date:

Astronomy

Jun. 11, 2013 Rise Set
Actual Time 4:48 AM EDT 8:18 PM EDT
Civil Twilight 4:11 AM EDT 8:54 PM EDT
Nautical Twilight 3:23 AM EDT 9:42 PM EDT
Astronomical Twilight 2:22 AM EDT 10:44 PM EDT
Moon 7:33 AM EDT (6/11) 10:12 PM EDT (6/11)
Length of Visible Light 16h 42m
Length of Day
15h 29m
Waxing Crescent, 8% of the Moon is Illuminated
Jun 11
Waxing Crescent
Jun 16
First Quarter
Jun 23
Full
Jun 30
Last Quarter
Jul 8
New

Hourly Weather History & Observations

Time (EDT) Temp. Dew Point Humidity Pressure Visibility Wind Dir Wind Speed Gust Speed Precip Events Conditions
12:15 AM 55.4 °F 53.6 °F 94% 30.06 in 10.0 mi South 3.5 mph - N/A   Clear
12:35 AM 55.4 °F 53.6 °F 94% 30.06 in 10.0 mi SSW 4.6 mph - N/A   Clear
12:55 AM 55.4 °F 53.6 °F 94% 30.06 in 10.0 mi South 5.8 mph - N/A   Clear
1:15 AM 55.4 °F 53.6 °F 94% 30.06 in 10.0 mi SSW 4.6 mph - N/A   Clear
1:35 AM 55.4 °F 53.6 °F 94% 30.05 in 10.0 mi Calm Calm - N/A   Clear
1:55 AM 55.4 °F 53.6 °F 94% 30.05 in 10.0 mi Calm Calm - N/A   Scattered Clouds
2:15 AM 55.4 °F 53.6 °F 94% 30.04 in 10.0 mi South 3.5 mph - N/A   Mostly Cloudy
2:35 AM 53.6 °F 51.8 °F 94% 30.03 in 10.0 mi South 4.6 mph - N/A   Overcast
2:55 AM 55.4 °F 53.6 °F 94% 30.03 in 10.0 mi SSW 4.6 mph - N/A   Overcast
3:15 AM 55.4 °F 53.6 °F 94% 30.02 in 10.0 mi South 8.1 mph - N/A   Overcast
3:35 AM 53.6 °F 51.8 °F 94% 30.01 in 10.0 mi SSW 9.2 mph - N/A   Overcast
3:55 AM 53.6 °F 51.8 °F 94% 30.01 in 10.0 mi SSW 5.8 mph - N/A   Overcast
4:15 AM 53.6 °F 51.8 °F 94% 30.01 in 10.0 mi SSW 4.6 mph - N/A   Overcast
4:35 AM 53.6 °F 51.8 °F 94% 30.00 in 10.0 mi SSW 5.8 mph - N/A   Mostly Cloudy
4:55 AM 53.6 °F 51.8 °F 94% 30.00 in 10.0 mi SSW 5.8 mph - N/A   Mostly Cloudy
5:15 AM 53.6 °F 51.8 °F 94% 29.99 in 10.0 mi South 5.8 mph - N/A   Mostly Cloudy
5:35 AM 53.6 °F 51.8 °F 94% 29.99 in 10.0 mi SSE 3.5 mph - N/A   Overcast
5:55 AM 53.6 °F 51.8 °F 94% 29.99 in 10.0 mi Calm Calm - N/A   Overcast
6:15 AM 53.6 °F 53.6 °F 100% 29.98 in 10.0 mi SE 4.6 mph - N/A   Overcast
6:35 AM 53.6 °F 53.6 °F 100% 29.98 in 10.0 mi SE 3.5 mph - N/A   Overcast
6:55 AM 53.6 °F 53.6 °F 100% 29.98 in 10.0 mi SE 3.5 mph - N/A   Overcast
7:15 AM 53.6 °F 53.6 °F 100% 29.98 in 10.0 mi South 4.6 mph - N/A   Overcast
7:35 AM 53.6 °F 53.6 °F 100% 29.97 in 10.0 mi Calm Calm - N/A   Overcast
7:55 AM 53.6 °F 53.6 °F 100% 29.97 in 9.0 mi Calm Calm - 0.01 in   Overcast
8:15 AM 53.6 °F 51.8 °F 94% 29.97 in 7.0 mi East 5.8 mph - N/A   Overcast
8:35 AM 53.6 °F 51.8 °F 94% 29.96 in 7.0 mi ENE 4.6 mph - N/A   Overcast
8:55 AM 53.6 °F 51.8 °F 94% 29.95 in 9.0 mi ENE 5.8 mph - N/A   Overcast
9:15 AM 53.6 °F 51.8 °F 94% 29.94 in 6.0 mi East 5.8 mph - N/A   Overcast
9:35 AM 53.6 °F 51.8 °F 94% 29.93 in 5.0 mi ENE 6.9 mph - N/A   Overcast
9:55 AM 53.6 °F 51.8 °F 94% 29.92 in 5.0 mi ENE 6.9 mph - N/A   Overcast
10:15 AM 53.6 °F 51.8 °F 94% 29.91 in 5.0 mi ENE 9.2 mph - N/A   Overcast
10:35 AM 53.6 °F 53.6 °F 100% 29.89 in 5.0 mi ENE 10.4 mph 16.1 mph N/A   Overcast
10:55 AM 55.4 °F 53.6 °F 94% 29.88 in 9.0 mi ENE 13.8 mph 17.3 mph N/A   Overcast
11:15 AM 53.6 °F 53.6 °F 100% 29.87 in 9.0 mi ENE 9.2 mph 16.1 mph N/A   Overcast
11:35 AM 53.6 °F 53.6 °F 100% 29.86 in 9.0 mi East 11.5 mph 17.3 mph N/A   Overcast
11:55 AM 53.6 °F 51.8 °F 94% 29.85 in 7.0 mi East 11.5 mph 19.6 mph N/A   Overcast
12:15 PM 53.6 °F 53.6 °F 100% 29.83 in 4.0 mi East 11.5 mph 19.6 mph N/A   Overcast
12:35 PM 53.6 °F 53.6 °F 100% 29.83 in 3.0 mi ENE 12.7 mph - N/A   Overcast
12:55 PM 53.6 °F 53.6 °F 100% 29.82 in 2.0 mi ENE 8.1 mph 19.6 mph N/A   Overcast
1:16 PM 53.6 °F 51.8 °F 94% 29.80 in 3.0 mi ENE 15.0 mph 21.9 mph N/A   Overcast
1:35 PM 53.6 °F 53.6 °F 100% 29.79 in 4.0 mi East 13.8 mph 20.7 mph N/A   Overcast
1:55 PM 53.6 °F 51.8 °F 94% 29.78 in 8.0 mi East 10.4 mph 16.1 mph N/A   Overcast
2:15 PM 53.6 °F 53.6 °F 100% 29.77 in 4.0 mi East 16.1 mph 20.7 mph N/A   Overcast
2:35 PM 53.6 °F 53.6 °F 100% 29.75 in 3.0 mi East 13.8 mph 18.4 mph N/A   Overcast
2:55 PM 53.6 °F 53.6 °F 100% 29.74 in 3.0 mi East 9.2 mph 16.1 mph N/A   Overcast
3:15 PM 53.6 °F 51.8 °F 94% 29.74 in 2.5 mi East 12.7 mph 19.6 mph N/A   Overcast
3:35 PM 53.6 °F 51.8 °F 94% 29.72 in 4.0 mi East 13.8 mph 18.4 mph N/A   Overcast
3:55 PM 53.6 °F 51.8 °F 94% 29.71 in 3.0 mi East 11.5 mph 19.6 mph N/A   Overcast
4:15 PM 53.6 °F 53.6 °F 100% 29.69 in 3.0 mi ENE 17.3 mph 21.9 mph N/A   Overcast
4:35 PM 55.4 °F 55.4 °F 100% 29.67 in 2.5 mi ENE 12.7 mph 19.6 mph N/A   Overcast
4:55 PM 55.4 °F 55.4 °F 100% 29.66 in 3.0 mi ENE 11.5 mph 24.2 mph N/A   Overcast
5:15 PM 55.4 °F 55.4 °F 100% 29.64 in 2.0 mi East 17.3 mph 24.2 mph N/A   Overcast
5:35 PM 55.4 °F 55.4 °F 100% 29.63 in 2.0 mi ENE 11.5 mph 21.9 mph N/A   Overcast
5:55 PM 53.6 °F 53.6 °F 100% 29.63 in 3.0 mi ENE 15.0 mph 21.9 mph N/A   Overcast
6:15 PM 53.6 °F 53.6 °F 100% 29.62 in 3.0 mi East 11.5 mph 24.2 mph N/A   Overcast
6:35 PM 53.6 °F 53.6 °F 100% 29.62 in 3.0 mi ENE 11.5 mph 18.4 mph N/A   Overcast
6:55 PM 53.6 °F 53.6 °F 100% 29.61 in 3.0 mi ENE 11.5 mph 21.9 mph N/A   Overcast
7:15 PM 53.6 °F 53.6 °F 100% 29.61 in 3.0 mi ENE 12.7 mph 18.4 mph N/A   Overcast
7:35 PM 53.6 °F 51.8 °F 94% 29.61 in 3.0 mi ENE 8.1 mph 18.4 mph N/A   Overcast
7:55 PM 53.6 °F 51.8 °F 94% 29.60 in 3.0 mi ENE 9.2 mph 16.1 mph N/A   Overcast
8:15 PM 53.6 °F 51.8 °F 94% 29.60 in 2.5 mi ENE 9.2 mph - N/A   Overcast
8:35 PM 53.6 °F 51.8 °F 94% 29.59 in 3.0 mi East 9.2 mph 17.3 mph N/A   Overcast
8:55 PM 53.6 °F 51.8 °F 94% 29.59 in 3.0 mi East 9.2 mph 20.7 mph N/A   Overcast
9:15 PM 53.6 °F 53.6 °F 100% 29.59 in 3.0 mi East 10.4 mph 21.9 mph N/A   Overcast
9:35 PM 53.6 °F 53.6 °F 100% 29.58 in 4.0 mi East 12.7 mph 19.6 mph N/A   Overcast
9:55 PM 53.6 °F 53.6 °F 100% 29.57 in 3.0 mi East 11.5 mph 19.6 mph N/A   Overcast
10:15 PM 53.6 °F 53.6 °F 100% 29.56 in 5.0 mi East 10.4 mph 17.3 mph N/A   Overcast
10:35 PM 53.6 °F 53.6 °F 100% 29.56 in 5.0 mi East 9.2 mph 18.4 mph N/A   Overcast
10:55 PM 51.8 °F 51.8 °F 100% 29.55 in 4.0 mi East 10.4 mph 17.3 mph N/A   Overcast
11:15 PM 51.8 °F 51.8 °F 100% 29.55 in 5.0 mi East 6.9 mph 17.3 mph N/A   Overcast
11:35 PM 51.8 °F 51.8 °F 100% 29.54 in 5.0 mi East 10.4 mph - N/A   Overcast
11:55 PM 51.8 °F 51.8 °F 100% 29.54 in 5.0 mi East 9.2 mph - N/A   Overcast